Location: Newark
(35.2672°N, 80.7344°W)
Time: 20:49:03
(UTC+00:00)

Vanguard 2 Rocket - Pass Details

Date: 21 January 2020
Orbit: 554 x 3327 km, 32.9° (Epoch: 22 February)

Event Time Altitude Azimuth Distance (km) Brightness Sun altitude
Rises 20:06:57 0° 262° (W) 6,192 11.9 24.0°
Reaches altitude 10° 20:17:26 10° 229° (SW) 5,881 13.0 22.6°
Maximum altitude 20:20:08 10° 220° (SW) 5,965 13.3 22.3°
Drops below altitude 10° 20:22:56 10° 211° (SSW) 6,111 13.0 21.9°
Sets 20:35:44 0° 179° (S) 7,289 12.2 20.1°
